North Myrtle Beach, SC

4:02 AM EST on November 20, 2019 (GMT -0500)
Grand Strand

Weather History for KCRE - August, 2019

Change the Weather History Date:

Friday, August 2, 2019

  Actual Average Record
Temperature  
Mean Temperature 80 °F 80 °F  
Max Temperature 85 °F 87 °F 98 °F (2011)
Min Temperature 74 °F 73 °F 61 °F (1966)
Degree Days  
Heating Degree Days 0 0  
Month to date heating degree days 0 0  
Since 1 June heating degree days 0 0  
Since 1 July heating degree days 0 0  
Cooling Degree Days 15 15  
Month to date cooling degree days 31 30  
Year to date cooling degree days 1323 1075  
Since 1 June cooling degree days 930 863  
Growing Degree Days 28 (Base 50)    
Moisture  
Dew Point 72 °F    
Average Humidity 82    
Maximum Humidity 94    
Minimum Humidity 69    
Precipitation  
Precipitation 0.00 in 0.21 in 1.62 in (2014)
Month to date precipitation 0.00 0.43  
Year to date precipitation 23.01 28.37  
Sea Level Pressure  
Sea Level Pressure 30.05 in    
Wind  
Wind Speed 5 mph (ENE)    
Max Wind Speed 14 mph    
Max Gust Speed 18 mph    
Visibility 10 miles    
Events      
T = Trace of Precipitation, MM = Missing Value Source: NWS Daily Summary

Daily Weather History Graph

Daily Weather History Graph

Search for Another Location

Airport or City:

Astronomy

Aug. 02, 2019 Rise Set
Actual Time 6:27 AM EDT 8:14 PM EDT
Civil Twilight 5:59 AM EDT 8:41 PM EDT
Nautical Twilight 5:27 AM EDT 9:14 PM EDT
Astronomical Twilight 4:52 AM EDT 9:49 PM EDT
Moon 8:01 AM EDT (8/2) 9:46 PM EDT (8/2)
Length of Visible Light 14h 41m
Length of Day
13h 47m
Waxing Crescent, 4% of the Moon is Illuminated
Aug 2
Waxing Crescent
Aug 7
First Quarter
Aug 15
Full
Aug 23
Last Quarter
Aug 30
New

Hourly Weather History & Observations

Time (EDT) Temp. Heat Index Dew Point Humidity Pressure Visibility Wind Dir Wind Speed Gust Speed Precip Events Conditions
12:53 AM 75.0 °F - 71.1 °F 87% 30.08 in 10.0 mi North 6.9 mph - N/A   Clear
1:53 AM 73.9 °F - 71.1 °F 91% 30.05 in 10.0 mi NNE 6.9 mph - N/A   Clear
2:53 AM 75.0 °F - 71.1 °F 87% 30.04 in 10.0 mi NNE 3.5 mph - N/A   Clear
3:53 AM 75.0 °F - 71.1 °F 87% 30.04 in 10.0 mi ENE 4.6 mph - N/A   Clear
4:53 AM 75.0 °F - 72.0 °F 90% 30.04 in 10.0 mi North 4.6 mph - N/A   Mostly Cloudy
5:37 AM 73.9 °F - 72.0 °F 93% 30.05 in 10.0 mi NNE 10.4 mph - N/A   Mostly Cloudy
5:46 AM 73.9 °F - 72.0 °F 93% 30.06 in 10.0 mi NNE 12.7 mph - N/A   Overcast
5:53 AM 73.9 °F - 72.0 °F 93% 30.06 in 9.0 mi NNE 9.2 mph - N/A   Overcast
6:11 AM 73.9 °F - 72.0 °F 93% 30.06 in 10.0 mi NNE 9.2 mph - N/A   Overcast
6:53 AM 73.9 °F - 70.0 °F 87% 30.05 in 10.0 mi North 6.9 mph - N/A   Scattered Clouds
7:53 AM 75.9 °F - 70.0 °F 82% 30.05 in 10.0 mi NNE 5.8 mph - N/A   Clear
8:36 AM 77.0 °F - 70.0 °F 79% 30.07 in 10.0 mi ENE 5.8 mph - N/A   Mostly Cloudy
8:49 AM 78.8 °F - 71.6 °F 78% 30.07 in 10.0 mi ENE 3.5 mph - N/A   Scattered Clouds
8:53 AM 78.1 °F - 71.1 °F 79% 30.07 in 10.0 mi East 3.5 mph - N/A   Scattered Clouds
9:53 AM 79.0 °F - 72.0 °F 79% 30.08 in 10.0 mi East 6.9 mph - N/A   Mostly Cloudy
10:31 AM 80.1 °F 83.8 °F 72.0 °F 76% 30.08 in 10.0 mi NE 4.6 mph - N/A   Scattered Clouds
10:53 AM 80.1 °F 83.8 °F 72.0 °F 76% 30.09 in 10.0 mi NE 4.6 mph - N/A   Clear
11:41 AM 81.0 °F 86.2 °F 73.9 °F 79% 30.08 in 10.0 mi NNE 4.6 mph - N/A   Mostly Cloudy
11:53 AM 82.0 °F 87.9 °F 73.9 °F 76% 30.09 in 10.0 mi North 3.5 mph - N/A   Mostly Cloudy
12:01 PM 82.0 °F 87.9 °F 73.9 °F 76% 30.08 in 10.0 mi NNE 4.6 mph - N/A   Partly Cloudy
12:53 PM 82.9 °F 90.2 °F 75.0 °F 77% 30.09 in 10.0 mi Variable 4.6 mph - N/A   Partly Cloudy
1:53 PM 82.9 °F 90.2 °F 75.0 °F 77% 30.07 in 10.0 mi SE 8.1 mph - N/A   Partly Cloudy
2:53 PM 84.0 °F 91.2 °F 73.9 °F 72% 30.04 in 10.0 mi ESE 5.8 mph - N/A   Clear
3:38 PM 82.9 °F 89.4 °F 73.9 °F 74% 30.03 in 10.0 mi East 8.1 mph - N/A   Mostly Cloudy
3:53 PM 82.0 °F 87.9 °F 73.9 °F 76% 30.03 in 10.0 mi SE 6.9 mph - N/A   Mostly Cloudy
4:28 PM 81.0 °F 86.7 °F 75.0 °F 82% 30.02 in 10.0 mi South 9.2 mph - N/A   Mostly Cloudy
4:42 PM 81.0 °F 86.2 °F 73.9 °F 79% 30.03 in 10.0 mi SSE 8.1 mph - N/A   Mostly Cloudy
4:53 PM 81.0 °F 86.2 °F 73.9 °F 79% 30.03 in 10.0 mi South 6.9 mph - N/A   Mostly Cloudy
5:53 PM 80.1 °F 84.2 °F 73.0 °F 79% 30.03 in 10.0 mi SSE 8.1 mph - N/A   Partly Cloudy
6:53 PM 80.1 °F 84.2 °F 73.0 °F 79% 30.02 in 10.0 mi South 6.9 mph - N/A   Mostly Cloudy
7:53 PM 80.1 °F 83.6 °F 71.1 °F 74% 30.01 in 10.0 mi SSE 3.5 mph - N/A   Clear
8:53 PM 80.1 °F 83.2 °F 70.0 °F 71% 30.01 in 10.0 mi Calm Calm - N/A   Partly Cloudy
9:34 PM 78.1 °F - 73.0 °F 84% 30.01 in 10.0 mi Calm Calm - N/A   Mostly Cloudy
9:42 PM 78.1 °F - 73.0 °F 84% 30.01 in 10.0 mi Calm Calm - N/A   Mostly Cloudy
9:53 PM 78.1 °F - 73.0 °F 84% 30.02 in 10.0 mi Calm Calm - N/A   Mostly Cloudy
10:53 PM 77.0 °F - 73.0 °F 88% 30.04 in 10.0 mi North 4.6 mph - N/A   Clear
11:53 PM 75.9 °F - 73.0 °F 91% 30.04 in 10.0 mi NNE 4.6 mph - N/A   Partly Cloudy